This is the latest recevied weather packets stored in our database for station/object KV9E. If no packets are shown the sender has not sent any weather packets the latest 1 day(s).
| Time | Temp. | Humidity | Pressure | Rain* | Wind** | Luminosity | Snow |
|---|---|---|---|---|---|---|---|
| 1777989593 | 16.11° C | 68% | 1012.9 hPa | 0 mm | 0 m/s | 162 W/m² | - |
| 1777989290 | 16.11° C | 67% | 1013 hPa | 0 mm | 0 m/s | 151 W/m² | - |
| 1777988986 | 16.11° C | 69% | 1013.1 hPa | 0 mm | 0.89 m/s, 151° | 153 W/m² | - |
| 1777988682 | 15.56° C | 69% | 1013 hPa | 0 mm | 0 m/s | 178 W/m² | - |
| 1777988378 | 15.56° C | 68% | 1012.8 hPa | 0 mm | 0 m/s | 178 W/m² | - |
| 1777988070 | 15.56° C | 67% | 1012.8 hPa | 0 mm | 0 m/s | 114 W/m² | - |
| 1777987765 | 15.56° C | 68% | 1012.9 hPa | 0 mm | 0 m/s | 130 W/m² | - |
| 1777987462 | 15.56° C | 67% | 1012.9 hPa | 0 mm | 0 m/s | 136 W/m² | - |
| 1777987160 | 15.56° C | 68% | 1012.9 hPa | 0 mm | 0 m/s | 134 W/m² | - |
| 1777986857 | 15.56° C | 67% | 1013 hPa | 0 mm | 0 m/s | 114 W/m² | - |
| 1777986555 | 15.56° C | 69% | 1013 hPa | 0 mm | 0 m/s | 102 W/m² | - |
| 1777986252 | 15.56° C | 68% | 1013.2 hPa | 0 mm | 0 m/s | 109 W/m² | - |
| 1777985949 | 15.56° C | 68% | 1013.1 hPa | 0 mm | 0 m/s | 101 W/m² | - |
| 1777985647 | 15° C | 68% | 1013.1 hPa | 0 mm | 0 m/s | 94 W/m² | - |
| 1777985343 | 15° C | 68% | 1013.2 hPa | 0 mm | 0 m/s | 92 W/m² | - |
| 1777985041 | 15° C | 68% | 1013.2 hPa | 0 mm | 0 m/s | 93 W/m² | - |
| 1777984736 | 15° C | 67% | 1013.1 hPa | 0 mm | 0 m/s | 81 W/m² | - |
| 1777984433 | 15° C | 68% | 1013.3 hPa | 0 mm | 0 m/s | 71 W/m² | - |
| 1777984129 | 14.44° C | 67% | 1012.8 hPa | 0 mm | 0 m/s | 63 W/m² | - |
| 1777983827 | 14.44° C | 67% | 1013 hPa | 0 mm | 0.45 m/s, 166° | 60 W/m² | - |
| 1777983524 | 14.44° C | 68% | 1012.7 hPa | 0 mm | 0 m/s | 52 W/m² | - |
| 1777983221 | 14.44° C | 69% | 1012.7 hPa | 0 mm | 0 m/s | 46 W/m² | - |
| 1777982916 | 14.44° C | 67% | 1012.6 hPa | 0 mm | 0 m/s | 41 W/m² | - |
| 1777982612 | 14.44° C | 67% | 1012.7 hPa | 0 mm | 0.45 m/s, 159° | 37 W/m² | - |
| 1777982311 | 14.44° C | 67% | 1012.4 hPa | 0 mm | 0 m/s | 35 W/m² | - |
* Rain latest hour (hover to see other rain measurements)
** Current wind speed in m/s (hover to see current wind gust speed)